Time,TemperatureF,DewpointF,PressureIn,WindDirection,WindDirectionDegrees,WindSpeedMPH,WindSpeedGustMPH,Humidity,HourlyPrecipIn,Conditions,Clouds,dailyrainin,SoftwareType,DateUTC
2013-02-27 00:09:00,37.2,35.0,29.78,SSE,154,4.0,4.0,92,0.03,,,0.00,weatherlink.com 1.10,2013-02-27 05:09:00,
2013-02-27 00:24:00,36.9,35.0,29.78,NE,42,6.0,6.0,92,0.03,,,0.00,weatherlink.com 1.10,2013-02-27 05:24:00,
2013-02-27 00:39:00,36.8,35.0,29.78,East,99,0.0,4.0,91,0.01,,,0.00,weatherlink.com 1.10,2013-02-27 05:39:00,
2013-02-27 00:54:00,36.8,35.0,29.79,NW,307,1.0,8.0,91,0.00,,,0.00,weatherlink.com 1.10,2013-02-27 05:54:00,
2013-02-27 01:09:00,36.8,34.0,29.79,East,88,0.0,6.0,90,0.00,,,0.00,weatherlink.com 1.10,2013-02-27 06:09:00,
2013-02-27 01:24:00,36.8,34.0,29.80,ENE,77,2.0,4.0,90,0.00,,,0.00,weatherlink.com 1.10,2013-02-27 06:24:00,
2013-02-27 01:54:00,36.6,34.0,29.80,SE,124,0.0,5.0,90,0.00,,,0.00,weatherlink.com 1.10,2013-02-27 06:54:00,
2013-02-27 02:09:00,36.6,34.0,29.81,WSW,249,2.0,4.0,90,0.00,,,0.00,weatherlink.com 1.10,2013-02-27 07:09:00,
2013-02-27 02:24:00,36.6,34.0,29.81,SE,138,2.0,5.0,89,0.00,,,0.00,weatherlink.com 1.10,2013-02-27 07:24:00,
2013-02-27 02:39:00,36.5,34.0,29.81,SSW,206,0.0,3.0,90,0.00,,,0.00,weatherlink.com 1.10,2013-02-27 07:39:00,
2013-02-27 02:54:00,36.3,34.0,29.81,SE,146,0.0,1.0,91,0.00,,,0.00,weatherlink.com 1.10,2013-02-27 07:54:00,
2013-02-27 03:09:00,36.1,34.0,29.81,ENE,68,4.0,5.0,91,0.00,,,0.00,weatherlink.com 1.10,2013-02-27 08:09:00,
2013-02-27 03:24:00,36.1,33.0,29.81,East,100,0.0,4.0,89,0.00,,,0.00,weatherlink.com 1.10,2013-02-27 08:24:00,
2013-02-27 03:39:00,36.2,33.0,29.81,SSW,211,0.0,3.0,89,0.00,,,0.00,weatherlink.com 1.10,2013-02-27 08:39:00,
2013-02-27 03:54:00,36.2,33.0,29.81,NW,309,1.0,8.0,88,0.00,,,0.00,weatherlink.com 1.10,2013-02-27 08:54:00,
2013-02-27 04:10:00,36.1,33.0,29.82,NW,326,1.0,5.0,87,0.00,,,0.00,weatherlink.com 1.10,2013-02-27 09:10:00,
2013-02-27 04:25:00,36.2,32.0,29.82,South,174,0.0,4.0,85,0.00,,,0.00,weatherlink.com 1.10,2013-02-27 09:25:00,
2013-02-27 04:40:00,36.2,32.0,29.83,ESE,121,0.0,4.0,85,0.00,,,0.00,weatherlink.com 1.10,2013-02-27 09:40:00,
2013-02-27 04:55:00,36.2,32.0,29.84,NW,317,1.0,3.0,85,0.00,,,0.00,weatherlink.com 1.10,2013-02-27 09:55:00,
2013-02-27 05:10:00,36.3,32.0,29.84,East,93,0.0,7.0,84,0.00,,,0.00,weatherlink.com 1.10,2013-02-27 10:10:00,
2013-02-27 05:25:00,36.1,31.0,29.85,SSE,150,1.0,2.0,83,0.00,,,0.00,weatherlink.com 1.10,2013-02-27 10:25:00,
2013-02-27 05:40:00,36.1,32.0,29.85,ENE,64,0.0,1.0,84,0.00,,,0.00,weatherlink.com 1.10,2013-02-27 10:40:00,
2013-02-27 05:55:00,36.1,32.0,29.86,East,99,0.0,2.0,84,0.00,,,0.00,weatherlink.com 1.10,2013-02-27 10:55:00,
2013-02-27 06:10:00,36.1,32.0,29.86,ESE,122,0.0,3.0,85,0.00,,,0.00,weatherlink.com 1.10,2013-02-27 11:10:00,
2013-02-27 06:25:00,36.1,32.0,29.86,WSW,248,4.0,4.0,85,0.00,,,0.00,weatherlink.com 1.10,2013-02-27 11:25:00,
2013-02-27 06:40:00,36.0,32.0,29.86,North,352,1.0,2.0,84,0.00,,,0.00,weatherlink.com 1.10,2013-02-27 11:40:00,
2013-02-27 06:55:00,36.1,32.0,29.86,SW,228,0.0,1.0,85,0.00,,,0.00,weatherlink.com 1.10,2013-02-27 11:55:00,
2013-02-27 07:10:00,36.0,32.0,29.86,ESE,121,3.0,3.0,85,0.00,,,0.00,weatherlink.com 1.10,2013-02-27 12:10:00,
2013-02-27 07:25:00,36.0,32.0,29.86,NNE,24,0.0,1.0,85,0.00,,,0.00,weatherlink.com 1.10,2013-02-27 12:25:00,
2013-02-27 07:40:00,36.0,32.0,29.86,NNE,29,0.0,1.0,84,0.00,,,0.00,weatherlink.com 1.10,2013-02-27 12:40:00,
2013-02-27 07:55:00,36.2,32.0,29.88,SSW,201,0.0,2.0,85,0.00,,,0.00,weatherlink.com 1.10,2013-02-27 12:55:00,
2013-02-27 08:10:00,36.4,32.0,29.89,SE,134,0.0,2.0,85,0.00,,,0.00,weatherlink.com 1.10,2013-02-27 13:10:00,
2013-02-27 08:25:00,36.5,32.0,29.89,SE,146,0.0,1.0,84,0.00,,,0.00,weatherlink.com 1.10,2013-02-27 13:25:00,
2013-02-27 08:40:00,36.6,32.0,29.90,East,101,1.0,3.0,84,0.00,,,0.00,weatherlink.com 1.10,2013-02-27 13:40:00,
2013-02-27 08:55:00,36.9,33.0,29.90,West,259,1.0,3.0,84,0.00,,,0.00,weatherlink.com 1.10,2013-02-27 13:55:00,
2013-02-27 09:10:00,37.5,33.0,29.90,SW,228,0.0,2.0,84,0.00,,,0.00,weatherlink.com 1.10,2013-02-27 14:10:00,
2013-02-27 09:25:00,38.3,33.0,29.91,NNW,347,1.0,3.0,82,0.00,,,0.00,weatherlink.com 1.10,2013-02-27 14:25:00,
2013-02-27 09:40:00,39.0,34.0,29.91,ESE,123,1.0,2.0,82,0.00,,,0.00,weatherlink.com 1.10,2013-02-27 14:40:00,
2013-02-27 09:55:00,39.3,34.0,29.91,SSE,150,1.0,3.0,81,0.00,,,0.00,weatherlink.com 1.10,2013-02-27 14:55:00,
2013-02-27 10:10:00,39.6,34.0,29.91,South,182,1.0,3.0,80,0.00,,,0.00,weatherlink.com 1.10,2013-02-27 15:10:00,
2013-02-27 10:25:00,39.9,34.0,29.92,ESE,119,4.0,5.0,79,0.00,,,0.00,weatherlink.com 1.10,2013-02-27 15:25:00,
2013-02-27 10:40:00,40.2,34.0,29.92,WSW,252,0.0,4.0,78,0.00,,,0.00,weatherlink.com 1.10,2013-02-27 15:40:00,
2013-02-27 10:56:00,40.7,35.0,29.91,WSW,243,1.0,5.0,79,0.00,,,0.00,weatherlink.com 1.10,2013-02-27 15:56:00,
2013-02-27 11:10:00,42.0,35.0,29.91,SSW,207,1.0,6.0,76,0.00,,,0.00,weatherlink.com 1.10,2013-02-27 16:10:00,
2013-02-27 11:25:00,42.5,35.0,29.91,ESE,113,1.0,6.0,76,0.00,,,0.00,weatherlink.com 1.10,2013-02-27 16:25:00,
2013-02-27 11:40:00,44.3,35.0,29.91,SSW,200,4.0,6.0,70,0.00,,,0.00,weatherlink.com 1.10,2013-02-27 16:40:00,
2013-02-27 11:55:00,45.0,35.0,29.91,ESE,116,5.0,7.0,67,0.00,,,0.00,weatherlink.com 1.10,2013-02-27 16:55:00,
2013-02-27 12:11:00,46.0,36.0,29.90,West,262,1.0,8.0,67,0.00,,,0.00,weatherlink.com 1.10,2013-02-27 17:11:00,
2013-02-27 12:26:00,46.7,36.0,29.90,SW,221,2.0,6.0,66,0.00,,,0.00,weatherlink.com 1.10,2013-02-27 17:26:00,
2013-02-27 12:41:00,47.8,35.0,29.89,ESE,104,1.0,5.0,62,0.00,,,0.00,weatherlink.com 1.10,2013-02-27 17:41:00,
2013-02-27 12:56:00,48.2,36.0,29.89,SE,146,2.0,5.0,62,0.00,,,0.00,weatherlink.com 1.10,2013-02-27 17:56:00,
2013-02-27 13:11:00,48.9,35.0,29.88,ENE,76,1.0,6.0,59,0.00,,,0.00,weatherlink.com 1.10,2013-02-27 18:11:00,
2013-02-27 13:26:00,49.6,36.0,29.88,South,169,0.0,5.0,60,0.00,,,0.00,weatherlink.com 1.10,2013-02-27 18:26:00,
2013-02-27 13:41:00,51.4,36.0,29.87,SSW,201,2.0,9.0,57,0.00,,,0.00,weatherlink.com 1.10,2013-02-27 18:41:00,
2013-02-27 13:56:00,52.5,39.0,29.86,SW,231,1.0,7.0,60,0.00,,,0.00,weatherlink.com 1.10,2013-02-27 18:56:00,
2013-02-27 14:11:00,53.5,36.0,29.86,SSW,211,1.0,4.0,52,0.00,,,0.00,weatherlink.com 1.10,2013-02-27 19:11:00,
2013-02-27 14:26:00,53.5,36.0,29.85,SW,215,2.0,9.0,52,0.00,,,0.00,weatherlink.com 1.10,2013-02-27 19:26:00,
2013-02-27 14:41:00,53.8,37.0,29.85,SW,232,4.0,5.0,54,0.00,,,0.00,weatherlink.com 1.10,2013-02-27 19:41:00,
2013-02-27 14:56:00,53.6,37.0,29.85,SSE,166,4.0,6.0,53,0.00,,,0.00,weatherlink.com 1.10,2013-02-27 19:56:00,
2013-02-27 15:11:00,53.0,37.0,29.85,East,88,1.0,7.0,54,0.00,,,0.00,weatherlink.com 1.10,2013-02-27 20:11:00,
2013-02-27 15:26:00,53.2,36.0,29.85,SSW,208,5.0,7.0,52,0.00,,,0.00,weatherlink.com 1.10,2013-02-27 20:26:00,
2013-02-27 15:41:00,53.3,36.0,29.85,WSW,240,3.0,7.0,53,0.00,,,0.00,weatherlink.com 1.10,2013-02-27 20:41:00,
2013-02-27 16:11:00,53.7,37.0,29.84,SW,215,1.0,5.0,54,0.00,,,0.00,weatherlink.com 1.10,2013-02-27 21:11:00,
2013-02-27 16:26:00,53.0,36.0,29.85,SSW,211,4.0,8.0,52,0.00,,,0.00,weatherlink.com 1.10,2013-02-27 21:26:00,
2013-02-27 16:41:00,52.4,36.0,29.84,SSE,148,7.0,9.0,54,0.00,,,0.00,weatherlink.com 1.10,2013-02-27 21:41:00,
2013-02-27 16:56:00,51.9,36.0,29.85,WSW,238,1.0,8.0,54,0.00,,,0.00,weatherlink.com 1.10,2013-02-27 21:56:00,
2013-02-27 17:11:00,50.9,35.0,29.85,West,262,1.0,10.0,56,0.00,,,0.00,weatherlink.com 1.10,2013-02-27 22:11:00,
2013-02-27 17:26:00,49.9,35.0,29.86,SSE,148,2.0,6.0,58,0.00,,,0.00,weatherlink.com 1.10,2013-02-27 22:26:00,
2013-02-27 17:41:00,49.0,35.0,29.86,SE,126,1.0,2.0,59,0.00,,,0.00,weatherlink.com 1.10,2013-02-27 22:41:00,
2013-02-27 17:56:00,48.5,35.0,29.86,South,183,2.0,4.0,61,0.00,,,0.00,weatherlink.com 1.10,2013-02-27 22:56:00,
2013-02-27 18:11:00,48.1,35.0,29.86,West,280,0.0,3.0,61,0.00,,,0.00,weatherlink.com 1.10,2013-02-27 23:11:00,
2013-02-27 18:26:00,47.6,36.0,29.86,SSE,162,0.0,3.0,64,0.00,,,0.00,weatherlink.com 1.10,2013-02-27 23:26:00,
2013-02-27 18:41:00,47.2,35.0,29.86,SSE,149,0.0,1.0,64,0.00,,,0.00,weatherlink.com 1.10,2013-02-27 23:41:00,
2013-02-27 18:56:00,47.1,36.0,29.86,SE,139,0.0,1.0,65,0.00,,,0.00,weatherlink.com 1.10,2013-02-27 23:56:00,
2013-02-27 19:11:00,47.3,35.0,29.86,SSW,203,1.0,8.0,62,0.00,,,0.00,weatherlink.com 1.10,2013-02-28 00:11:00,
2013-02-27 19:26:00,47.2,36.0,29.88,East,81,2.0,3.0,65,0.00,,,0.00,weatherlink.com 1.10,2013-02-28 00:26:00,
2013-02-27 19:41:00,45.5,37.0,29.88,NNE,33,0.0,6.0,73,0.00,,,0.00,weatherlink.com 1.10,2013-02-28 00:41:00,
2013-02-27 19:56:00,44.5,37.0,29.86,ENE,68,0.0,1.0,76,0.00,,,0.00,weatherlink.com 1.10,2013-02-28 00:56:00,
2013-02-27 20:11:00,44.0,38.0,29.88,NW,311,1.0,4.0,79,0.00,,,0.00,weatherlink.com 1.10,2013-02-28 01:11:00,
2013-02-27 20:26:00,43.4,38.0,29.88,ENE,64,2.0,6.0,82,0.01,,,0.01,weatherlink.com 1.10,2013-02-28 01:26:00,
2013-02-27 20:41:00,42.9,38.0,29.88,ESE,115,1.0,5.0,84,0.01,,,0.01,weatherlink.com 1.10,2013-02-28 01:41:00,
2013-02-27 20:56:00,42.7,38.0,29.89,SSW,212,1.0,3.0,84,0.02,,,0.02,weatherlink.com 1.10,2013-02-28 01:56:00,
2013-02-27 21:11:00,42.2,38.0,29.89,SE,134,0.0,1.0,86,0.02,,,0.02,weatherlink.com 1.10,2013-02-28 02:11:00,
2013-02-27 21:26:00,41.6,38.0,29.89,ESE,103,0.0,1.0,88,0.01,,,0.02,weatherlink.com 1.10,2013-02-28 02:26:00,
2013-02-27 21:41:00,41.4,38.0,29.89,NE,46,1.0,2.0,89,0.01,,,0.02,weatherlink.com 1.10,2013-02-28 02:41:00,
2013-02-27 21:56:00,41.1,38.0,29.89,NE,40,2.0,6.0,88,0.00,,,0.02,weatherlink.com 1.10,2013-02-28 02:56:00,
2013-02-27 22:11:00,41.3,37.0,29.89,West,281,0.0,5.0,85,0.00,,,0.02,weatherlink.com 1.10,2013-02-28 03:11:00,
2013-02-27 22:26:00,41.2,37.0,29.90,NNW,335,1.0,3.0,84,0.00,,,0.02,weatherlink.com 1.10,2013-02-28 03:26:00,
2013-02-27 22:41:00,41.1,36.0,29.90,East,96,2.0,5.0,81,0.00,,,0.02,weatherlink.com 1.10,2013-02-28 03:41:00,
2013-02-27 22:56:00,41.0,35.0,29.90,ESE,118,0.0,2.0,79,0.00,,,0.02,weatherlink.com 1.10,2013-02-28 03:56:00,
2013-02-27 23:21:00,40.5,34.0,29.91,NE,47,4.0,6.0,76,0.00,,,0.02,weatherlink.com 1.10,2013-02-28 04:21:00,
2013-02-27 23:26:00,40.4,34.0,29.91,NE,44,0.0,5.0,77,0.00,,,0.02,weatherlink.com 1.10,2013-02-28 04:26:00,
2013-02-27 23:41:00,40.0,33.0,29.90,NNW,335,1.0,4.0,76,0.00,,,0.02,weatherlink.com 1.10,2013-02-28 04:41:00,